This is the latest recevied weather packets stored in our database for station/object AD8AK. If no packets are shown the sender has not sent any weather packets the latest 10 day(s).
| Time | Temp. | Humidity | Pressure | Rain* | Wind** | Luminosity | Snow |
|---|---|---|---|---|---|---|---|
| 1777363429 | 15.56° C | 93% | 1006.3 hPa | 0 mm | - | - | - |
| 1777363126 | 15.56° C | 93% | 1006.1 hPa | 0 mm | - | - | - |
| 1777362822 | 15.56° C | 93% | 1006.2 hPa | 0 mm | - | - | - |
| 1777362520 | 15.56° C | 93% | 1005.9 hPa | 0 mm | - | - | - |
| 1777362218 | 15.56° C | 93% | 1005.4 hPa | 0 mm | - | - | - |
| 1777361915 | 15.56° C | 93% | 1005.5 hPa | 0 mm | - | - | - |
| 1777361612 | 15.56° C | 93% | 1005.4 hPa | 0 mm | - | - | - |
| 1777361309 | 15.56° C | 93% | 1005.3 hPa | 0 mm | - | - | - |
| 1777361006 | 15.56° C | 93% | 1005.5 hPa | 0 mm | - | - | - |
| 1777360705 | 15.56° C | 93% | 1005.5 hPa | 0 mm | - | - | - |
| 1777360401 | 15.56° C | 93% | 1005.6 hPa | 0 mm | - | - | - |
| 1777360097 | 15.56° C | 93% | 1005.5 hPa | 0 mm | - | - | - |
| 1777359794 | 15.56° C | 93% | 1005.5 hPa | 0 mm | - | - | - |
| 1777359492 | 15.56° C | 93% | 1005.5 hPa | 0 mm | - | - | - |
| 1777359188 | 15.56° C | 93% | 1005.3 hPa | 0 mm | - | - | - |
| 1777358886 | 15.56° C | 94% | 1005 hPa | 1.78 mm | - | - | - |
| 1777358583 | 15.56° C | 94% | 1004.6 hPa | 3.05 mm | - | - | - |
| 1777358281 | 15.56° C | 94% | 1005.1 hPa | 1.27 mm | - | - | - |
| 1777357979 | 15.56° C | 94% | 1005.7 hPa | 1.78 mm | - | - | - |
| 1777357675 | 15.56° C | 94% | 1006.6 hPa | 3.05 mm | - | - | - |
| 1777357372 | 15.56° C | 94% | 1007.9 hPa | 1.78 mm | - | - | - |
| 1777357069 | 15.56° C | 94% | 1008.6 hPa | 1.78 mm | - | - | - |
| 1777356766 | 16.11° C | 95% | 1009.2 hPa | 0 mm | - | - | - |
| 1777356464 | 16.11° C | 95% | 1008.9 hPa | 0 mm | - | - | - |
| 1777356160 | 16.11° C | 95% | 1009.2 hPa | 1.27 mm | - | - | - |
* Rain latest hour (hover to see other rain measurements)
** Current wind speed in m/s (hover to see current wind gust speed)